Location: Waco, TX
(31.5480°N, 97.1670°W)
Time: 05:21:15
(UTC-05:00)

ISS - Pass Details

Date: 02 October 2022
Orbit: 414 x 417 km, 51.6° (Epoch: 01 October)

Event Time Altitude Azimuth Distance (km) Brightness Sun altitude
Rises 20:29:15 0° 329° (NNW) 2,356 0.6 -17.2°
Reaches altitude 10° 20:31:44 10° 346° (NNW) 1,490 -0.7 -17.8°
Enters shadow 20:33:41 19° 21° (NNE) 1,054 -1.9 -18.2°
Maximum altitude 20:34:17 20° 36° (NE) 1,021 - -18.3°
Drops below altitude 10° 20:36:51 10° 87° (E) 1,486 - -18.8°
Sets 20:39:19 0° 105° (ESE) 2,346 - -19.4°
